Location: Black Forest
(43.4794°N, 75.0081°W)
Time: 06:21:22
(UTC-04:00)

ISS - All Passes

Search period start: 26 July 2016 00:00
Search period end: 05 August 2016 00:00
Orbit: 401 x 404 km, 51.6° (Epoch: 26 July)

Date Brightness Start Highest point End Pass type
(mag) Time Alt. Az. Time Alt. Az. Time Alt. Az.
26 Jul - 00:00:21 10° W 00:03:15 29° NNW 00:06:12 10° NE visible
26 Jul - 01:37:59 10° NW 01:40:25 19° N 01:42:51 10° NE visible
26 Jul - 03:14:32 10° NW 03:17:32 33° NNE 03:20:31 10° E visible
26 Jul - 04:50:55 10° WNW 04:54:02 43° SW 04:57:08 10° SSE visible
26 Jul - 21:31:01 10° SSW 21:33:52 28° SE 21:36:44 10° ENE visible
26 Jul - 23:07:05 10° W 23:10:12 42° NNW 23:13:21 10° NE visible
27 Jul - 00:44:45 10° NW 00:47:14 19° N 00:49:43 10° NE visible
27 Jul - 02:21:39 10° NW 02:24:26 25° NNE 02:27:12 10° ENE visible
27 Jul - 03:57:54 10° WNW 04:01:09 82° SW 04:04:24 10° SE visible
27 Jul - 05:36:25 10° WSW 05:37:05 10° SW 05:37:44 10° SW daylight
27 Jul - 20:39:07 10° S 20:41:08 15° SE 20:43:09 10° E daylight
27 Jul - 22:13:58 10° WSW 22:17:13 70° NNW 22:20:28 10° NE visible
27 Jul - 23:51:26 10° WNW 23:54:04 22° N 23:56:43 10° NE visible
28 Jul - 01:28:43 10° NW 01:31:17 21° N 01:33:51 10° ENE visible
28 Jul - 03:04:58 10° NW 03:08:12 57° NNE 03:11:25 10° ESE visible
28 Jul - 04:41:57 10° W 04:44:23 20° SW 04:46:49 10° S visible
28 Jul - 21:21:04 10° SW 21:24:17 64° SE 21:27:31 10° ENE visible
28 Jul - 22:58:04 10° WNW 23:00:56 27° NNW 23:03:48 10° NE visible
29 Jul - 00:35:40 10° NW 00:38:06 19° N 00:40:33 10° NE visible
29 Jul - 02:12:07 10° NW 02:15:11 36° NNE 02:18:14 10° E visible
29 Jul - 03:48:35 10° WNW 03:51:37 36° SW 03:54:38 10° SSE night (unlit)
29 Jul - 20:28:28 10° SSW 20:31:26 33° SE 20:34:25 10° ENE daylight
29 Jul - 22:04:46 10° W 22:07:51 38° NNW 22:10:56 10° NE visible
29 Jul - 23:42:27 10° NW 23:44:54 19° N 23:47:22 10° NE visible
30 Jul - 01:19:15 10° NW 01:22:05 26° NNE 01:24:55 10° ENE visible
30 Jul - 02:55:30 10° WNW 02:58:45 69° SW 03:01:59 10° SE night (unlit)
30 Jul - 19:36:20 10° S 19:38:40 18° SE 19:41:00 10° E daylight
30 Jul - 21:11:35 10° WSW 21:14:49 60° NNW 21:18:03 10° NE visible
30 Jul - 22:49:08 10° WNW 22:51:43 21° N 22:54:19 10° NE visible
31 Jul - 00:26:20 10° NW 00:28:56 22° N 00:31:33 10° ENE visible
31 Jul - 02:02:34 10° NW 02:05:48 66° NNE 02:09:03 10° ESE visible
31 Jul - 03:39:46 10° W 03:41:55 17° SW 03:44:04 10° S night (unlit)
31 Jul - 20:18:37 10° SW 20:21:51 77° SSE 20:25:07 10° ENE daylight
31 Jul - 21:55:46 10° WNW 21:58:34 25° NNW 22:01:22 10° NE visible
31 Jul - 23:33:18 10° NW 23:35:45 19° N 23:38:13 10° NE visible
01 Aug - 01:09:40 10° NW 01:12:48 40° NNE 01:15:54 10° E visible
01 Aug - 02:46:14 10° WNW 02:49:09 30° SW 02:52:03 10° SSE night (unlit)
01 Aug - 19:25:55 10° SSW 19:28:59 40° SE 19:32:04 10° ENE daylight
01 Aug - 21:02:26 10° W 21:05:27 34° NNW 21:08:29 10° NE visible
01 Aug - 22:40:07 10° NW 22:42:33 19° N 22:44:59 10° NE visible
02 Aug - 00:16:48 10° NW 00:19:42 29° NNE 00:22:36 10° E visible
02 Aug - 01:53:06 10° WNW 01:56:19 57° SW 01:59:30 10° SE night (unlit)
02 Aug - 18:33:37 10° S 18:36:11 22° SE 18:38:45 10° E daylight
02 Aug - 20:09:12 10° WSW 20:12:23 52° NNW 20:15:36 10° NE daylight
02 Aug - 21:46:49 10° WNW 21:49:21 20° N 21:51:53 10° NE visible
02 Aug - 23:23:53 10° NW 23:26:34 23° NNE 23:29:14 10° ENE visible
03 Aug - 01:00:07 10° NW 01:03:22 77° NNE 01:06:38 10° ESE visible
03 Aug - 02:37:38 10° W 02:39:25 14° SW 02:41:12 10° SSW night (unlit)
03 Aug - 17:42:13 10° SSE 17:43:27 12° SE 17:44:41 10° ESE daylight
03 Aug - 19:16:09 10° WSW 19:19:24 90° SSW 19:22:41 10° ENE daylight
03 Aug - 20:53:26 10° WNW 20:56:10 24° NNW 20:58:54 10° NE visible
03 Aug - 22:30:53 10° NW 22:33:22 20° N 22:35:53 10° NE visible
04 Aug - 00:07:13 10° NW 00:10:22 46° NNE 00:13:31 10° E visible
04 Aug - 01:43:54 10° W 01:46:40 25° SW 01:49:25 10° SSE night (unlit)
04 Aug - 18:23:21 10° SW 18:26:30 48° SE 18:29:40 10° ENE daylight
04 Aug - 20:00:04 10° W 20:03:02 31° NNW 20:06:00 10° NE daylight
04 Aug - 21:37:44 10° NW 21:40:10 19° N 21:42:35 10° NE visible
04 Aug - 23:14:20 10° NW 23:17:17 31° NNE 23:20:15 10° E visible
